Terug naar catalogus

CZ-6A DEB

ActiefPO
NORAD 61490·DEBRIS·🇨🇳 China

Gelanceerd Aug 6, 2024 vanaf Taiyuan Satellite Launch Center

Loading…

Volgende Passages (komende 24 uur)

TLE

VersSource: Space-Track

Epoch: Sep 14, 2026, 00:14 UTC

1 61490U 24140AAY 26257.01018043  .00000871  00000-0  36719-3 0  9995
2 61490  88.9910 263.6901 0033901 270.7820  88.9488 14.24586560104254

Volg CZ-6A DEB in realtime met AllMySat

Download on the App Store